| time (UTC) | temp F | wind direction | speed knots | gust knots | rain 1hr in | rain 24hr in | rain mn in | humidity % | barometer mb |
| 20260508070605 | 58 | 329 | 1.7 | 1.7 | 0.00 | 0.00 | 0.00 | 54 | 1014.2 |
| 20260508065600 | 58 | 329 | 0.0 | 0.9 | 0.00 | 0.00 | 0.00 | 58 | 1014.5 |
| 20260508065058 | 58 | 358 | 0.9 | 1.7 | 0.00 | 0.00 | 0.00 | 55 | 1014.2 |
| 20260508064556 | 58 | 290 | 0.0 | 1.7 | 0.00 | 0.00 | 0.00 | 55 | 1014.4 |
| 20260508064053 | 58 | 5 | 1.7 | 1.7 | 0.00 | 0.00 | 0.00 | 53 | 1014.4 |
| 20260508063550 | 59 | 284 | 0.0 | 0.9 | 0.00 | 0.00 | 0.00 | 53 | 1014.4 |
| 20260508063049 | 59 | 355 | 0.9 | 1.7 | 0.00 | 0.00 | 0.00 | 52 | 1014.3 |
| 20260508062546 | 59 | 357 | 0.9 | 2.6 | 0.00 | 0.00 | 0.00 | 51 | 1014.3 |
| 20260508062042 | 60 | 349 | 0.9 | 1.7 | 0.00 | 0.00 | 0.00 | 50 | 1014.2 |
| 20260508061540 | 59 | 345 | 0.9 | 3.5 | 0.00 | 0.00 | 0.00 | 52 | 1014.2 |
| 20260508061036 | 59 | 304 | 0.9 | 3.5 | 0.00 | 0.00 | 0.00 | 51 | 1014.3 |
| 20260508060534 | 60 | 299 | 2.6 | 3.5 | 0.00 | 0.00 | 0.00 | 51 | 1014.3 |
| 20260508060031 | 61 | 314 | 0.9 | 1.7 | 0.00 | 0.00 | 0.00 | 48 | 1013.8 |
| 20260508055526 | 61 | 329 | 0.9 | 6.1 | 0.00 | 0.00 | 0.00 | 47 | 1014.0 |
| 20260508055024 | 60 | 12 | 2.6 | 6.1 | 0.00 | 0.00 | 0.00 | 46 | 1014.0 |
| 20260508054520 | 59 | 312 | 0.0 | 0.0 | 0.00 | 0.00 | 0.00 | 50 | 1013.8 |
| 20260508054017 | 59 | 351 | 4.3 | 7.0 | 0.00 | 0.00 | 0.00 | 49 | 1014.1 |
| 20260508053514 | 58 | 7 | 6.1 | 7.0 | 0.00 | 0.00 | 0.00 | 55 | 1013.8 |
| 20260508053013 | 58 | 284 | 0.0 | 0.0 | 0.00 | 0.00 | 0.00 | 52 | 1013.8 |
| 20260508052509 | 59 | 284 | 0.0 | 0.0 | 0.00 | 0.00 | 0.00 | 50 | 1013.6 |
| 20260508052006 | 59 | 284 | 0.0 | 0.0 | 0.00 | 0.00 | 0.00 | 51 | 1013.4 |
| 20260508051502 | 58 | 294 | 0.0 | 0.0 | 0.00 | 0.00 | 0.00 | 51 | 1013.5 |
| 20260508050957 | 58 | 22 | 0.0 | 0.0 | 0.00 | 0.00 | 0.00 | 55 | 1013.6 |
| 20260508050454 | 60 | 22 | 0.0 | 0.0 | 0.00 | 0.00 | 0.00 | 52 | 1013.7 |
| 20260508045951 | 61 | 21 | 0.0 | 0.0 | 0.00 | 0.00 | 0.00 | 48 | 1013.6 |
| 20260508045448 | 62 | 273 | 0.9 | 1.7 | 0.00 | 0.00 | 0.00 | 43 | 1013.4 |
| 20260508044945 | 61 | 244 | 0.0 | 3.5 | 0.00 | 0.00 | 0.00 | 44 | 1013.6 |
| 20260508044442 | 61 | 265 | 0.0 | 0.0 | 0.00 | 0.00 | 0.00 | 45 | 1013.5 |
| 20260508043937 | 62 | 267 | 0.0 | 0.9 | 0.00 | 0.00 | 0.00 | 44 | 1013.6 |
| 20260508043435 | 62 | 271 | 2.6 | 2.6 | 0.00 | 0.00 | 0.00 | 44 | 1013.7 |
| 20260508042931 | 63 | 266 | 1.7 | 3.5 | 0.00 | 0.00 | 0.00 | 43 | 1013.6 |
| 20260508042430 | 64 | 267 | 2.6 | 5.2 | 0.00 | 0.00 | 0.00 | 38 | 1013.6 |
| 20260508041926 | 63 | 294 | 3.5 | 5.2 | 0.00 | 0.00 | 0.00 | 39 | 1013.4 |
| 20260508041423 | 64 | 268 | 2.6 | 2.6 | 0.00 | 0.00 | 0.00 | 45 | 1013.5 |
| 20260508040919 | 63 | 284 | 1.7 | 3.5 | 0.00 | 0.00 | 0.00 | 43 | 1013.7 |
| 20260508040417 | 62 | 264 | 0.9 | 1.7 | 0.00 | 0.00 | 0.00 | 41 | 1013.5 |
| 20260508035914 | 61 | 238 | 0.9 | 1.7 | 0.00 | 0.00 | 0.00 | 48 | 1013.6 |
| 20260508035411 | 61 | 214 | 0.0 | 0.0 | 0.00 | 0.00 | 0.00 | 42 | 1013.5 |
| 20260508034908 | 61 | 269 | 1.7 | 3.5 | 0.00 | 0.00 | 0.00 | 44 | 1013.6 |
| 20260508034405 | 60 | 286 | 1.7 | 2.6 | 0.00 | 0.00 | 0.00 | 54 | 1013.5 |
| 20260508033902 | 61 | 291 | 0.9 | 1.7 | 0.00 | 0.00 | 0.00 | 50 | 1013.3 |
| 20260508033400 | 60 | 258 | 0.0 | 1.7 | 0.00 | 0.00 | 0.00 | 46 | 1013.5 |
| 20260508032857 | 60 | 281 | 2.6 | 2.6 | 0.00 | 0.00 | 0.00 | 55 | 1013.3 |
| 20260508032354 | 61 | 284 | 1.7 | 1.7 | 0.00 | 0.00 | 0.00 | 46 | 1013.3 |
| 20260508031851 | 60 | 285 | 1.7 | 2.6 | 0.00 | 0.00 | 0.00 | 46 | 1013.1 |
| 20260508031348 | 60 | 285 | 1.7 | 1.7 | 0.00 | 0.00 | 0.00 | 45 | 1013.3 |
| 20260508030844 | 60 | 292 | 2.6 | 2.6 | 0.00 | 0.00 | 0.00 | 51 | 1013.1 |
| 20260508030341 | 60 | 283 | 0.9 | 1.7 | 0.00 | 0.00 | 0.00 | 48 | 1013.1 |
| 20260508025838 | 60 | 270 | 0.0 | 0.0 | 0.00 | 0.00 | 0.00 | 45 | 1012.7 |
| 20260508025335 | 59 | 277 | 1.7 | 2.6 | 0.00 | 0.00 | 0.00 | 47 | 1013.0 |
| 20260508024832 | 59 | 316 | 0.0 | 0.0 | 0.00 | 0.00 | 0.00 | 49 | 1012.9 |
| 20260508024328 | 60 | 313 | 0.0 | 0.9 | 0.00 | 0.00 | 0.00 | 50 | 1012.8 |
| 20260508023826 | 62 | 224 | 0.0 | 0.0 | 0.00 | 0.00 | 0.00 | 40 | 1012.7 |
| 20260508023322 | 63 | 225 | 0.0 | 0.0 | 0.00 | 0.00 | 0.00 | 42 | 1012.8 |
| 20260508022819 | 63 | 201 | 0.0 | 0.9 | 0.00 | 0.00 | 0.00 | 37 | 1012.6 |
| 20260508022315 | 62 | 248 | 0.0 | 0.9 | 0.00 | 0.00 | 0.00 | 41 | 1012.7 |
| 20260508021812 | 61 | 269 | 0.9 | 2.6 | 0.00 | 0.00 | 0.00 | 47 | 1012.4 |
| 20260508021308 | 61 | 283 | 0.9 | 2.6 | 0.00 | 0.00 | 0.00 | 47 | 1012.3 |
| 20260508020804 | 62 | 269 | 0.0 | 0.0 | 0.00 | 0.00 | 0.00 | 49 | 1012.7 |
| 20260508020302 | 64 | 351 | 0.0 | 0.0 | 0.00 | 0.00 | 0.00 | 43 | 1012.4 |
| 20260508015758 | 64 | 66 | 0.0 | 0.0 | 0.00 | 0.00 | 0.00 | 38 | 1012.4 |
| 20260508015256 | 65 | 81 | 0.0 | 0.0 | 0.00 | 0.00 | 0.00 | 39 | 1012.2 |
| 20260508014753 | 66 | 95 | 0.0 | 0.9 | 0.00 | 0.00 | 0.00 | 39 | 1012.3 |
| 20260508014250 | 67 | 129 | 0.9 | 1.7 | 0.00 | 0.00 | 0.00 | 35 | 1012.2 |
| 20260508013745 | 66 | 130 | 0.0 | 0.0 | 0.00 | 0.00 | 0.00 | 36 | 1012.0 |
| 20260508013242 | 67 | 118 | 0.0 | 0.0 | 0.00 | 0.00 | 0.00 | 36 | 1012.0 |
| 20260508012739 | 67 | 90 | 0.0 | 0.9 | 0.00 | 0.00 | 0.00 | 36 | 1012.1 |
| 20260508012236 | 67 | 83 | 0.9 | 2.6 | 0.00 | 0.00 | 0.00 | 37 | 1012.0 |
| 20260508011734 | 68 | 83 | 0.9 | 1.7 | 0.00 | 0.00 | 0.00 | 37 | 1011.9 |
| 20260508011231 | 68 | 96 | 0.0 | 1.7 | 0.00 | 0.00 | 0.00 | 37 | 1011.9 |
| 20260508010728 | 69 | 89 | 1.7 | 2.6 | 0.00 | 0.00 | 0.00 | 35 | 1011.9 |
| 20260508010226 | 69 | 74 | 2.6 | 2.6 | 0.00 | 0.00 | 0.00 | 33 | 1011.9 |
| 20260508005723 | 70 | 81 | 2.6 | 5.2 | 0.00 | 0.00 | 0.00 | 33 | 1012.0 |
| 20260508005220 | 71 | 106 | 5.2 | 7.0 | 0.00 | 0.00 | 0.00 | 31 | 1011.8 |
| 20260508004715 | 71 | 100 | 3.5 | 3.5 | 0.00 | 0.00 | 0.00 | 33 | 1011.9 |
| 20260508004212 | 71 | 65 | 3.5 | 6.1 | 0.00 | 0.00 | 0.00 | 30 | 1012.0 |
| 20260508003708 | 71 | 82 | 4.3 | 5.2 | 0.00 | 0.00 | 0.00 | 30 | 1012.0 |
| 20260508003206 | 71 | 87 | 3.5 | 5.2 | 0.00 | 0.00 | 0.00 | 31 | 1011.8 |
| 20260508002702 | 71 | 111 | 1.7 | 3.5 | 0.00 | 0.00 | 0.00 | 31 | 1012.0 |
| 20260508002200 | 71 | 90 | 4.3 | 5.2 | 0.00 | 0.00 | 0.00 | 28 | 1011.8 |
| 20260508001655 | 72 | 139 | 1.7 | 5.2 | 0.00 | 0.00 | 0.00 | 28 | 1012.0 |
| 20260508001151 | 72 | 65 | 2.6 | 5.2 | 0.00 | 0.00 | 0.00 | 28 | 1012.0 |
| 20260508000648 | 73 | 82 | 3.5 | 5.2 | 0.00 | 0.00 | 0.00 | 29 | 1011.9 |
| 20260508000145 | 73 | 70 | 3.5 | 8.7 | 0.00 | 0.00 | 0.00 | 29 | 1012.0 |
| 20260507235641 | 73 | 70 | 6.1 | 8.7 | 0.00 | 0.00 | 0.00 | 27 | 1011.5 |
| 20260507235139 | 73 | 88 | 7.8 | 9.6 | 0.00 | 0.00 | 0.00 | 28 | 1011.8 |
| 20260507234636 | 73 | 74 | 5.2 | 8.7 | 0.00 | 0.00 | 0.00 | 29 | 1011.8 |
| 20260507234132 | 72 | 63 | 5.2 | 7.8 | 0.00 | 0.00 | 0.00 | 28 | 1011.8 |
| 20260507233629 | 71 | 75 | 4.3 | 8.7 | 0.00 | 0.00 | 0.00 | 30 | 1011.8 |
| 20260507233128 | 72 | 71 | 7.0 | 8.7 | 0.00 | 0.00 | 0.00 | 30 | 1012.0 |
| 20260507232625 | 71 | 80 | 6.1 | 8.7 | 0.00 | 0.00 | 0.00 | 30 | 1012.1 |
| 20260507232121 | 71 | 70 | 3.5 | 7.0 | 0.00 | 0.00 | 0.00 | 32 | 1012.2 |
| 20260507231617 | 71 | 63 | 5.2 | 7.0 | 0.00 | 0.00 | 0.00 | 30 | 1012.2 |
| 20260507231115 | 71 | 52 | 6.1 | 8.7 | 0.00 | 0.00 | 0.00 | 30 | 1012.2 |
| 20260507230611 | 72 | 49 | 5.2 | 7.0 | 0.00 | 0.00 | 0.00 | 30 | 1012.0 |
| 20260507230108 | 72 | 57 | 4.3 | 5.2 | 0.00 | 0.00 | 0.00 | 29 | 1012.0 |
| 20260507225602 | 72 | 78 | 2.6 | 5.2 | 0.00 | 0.00 | 0.00 | 29 | 1012.0 |
| 20260507225100 | 72 | 79 | 2.6 | 3.5 | 0.00 | 0.00 | 0.00 | 28 | 1012.0 |
| 20260507224555 | 72 | 77 | 1.7 | 3.5 | 0.00 | 0.00 | 0.00 | 29 | 1011.9 |
| 20260507224052 | 73 | 56 | 3.5 | 5.2 | 0.00 | 0.00 | 0.00 | 30 | 1011.9 |
| 20260507223548 | 72 | 62 | 2.6 | 3.5 | 0.00 | 0.00 | 0.00 | 29 | 1012.2 |
| 20260507223045 | 72 | 44 | 3.5 | 6.1 | 0.00 | 0.00 | 0.00 | 28 | 1012.1 |
| 20260507222542 | 72 | 19 | 1.7 | 3.5 | 0.00 | 0.00 | 0.00 | 28 | 1012.2 |
| 20260507222039 | 73 | 42 | 5.2 | 7.0 | 0.00 | 0.00 | 0.00 | 29 | 1012.2 |
| 20260507221535 | 74 | 75 | 9.6 | 9.6 | 0.00 | 0.00 | 0.00 | 28 | 1012.2 |
| 20260507221032 | 76 | 296 | 0.9 | 1.7 | 0.00 | 0.00 | 0.00 | 28 | 1012.2 |
| 20260507220529 | 74 | 58 | 0.9 | 2.6 | 0.00 | 0.00 | 0.00 | 29 | 1012.4 |
| 20260507220027 | 73 | 94 | 1.7 | 1.7 | 0.00 | 0.00 | 0.00 | 27 | 1012.4 |
| 20260507215522 | 73 | 199 | 2.6 | 3.5 | 0.00 | 0.00 | 0.00 | 27 | 1012.4 |
| 20260507215021 | 74 | 145 | 4.3 | 6.1 | 0.00 | 0.00 | 0.00 | 27 | 1012.4 |
| 20260507214517 | 76 | 97 | 0.9 | 1.7 | 0.00 | 0.00 | 0.00 | 26 | 1012.7 |
| 20260507214013 | 75 | 142 | 2.6 | 6.1 | 0.00 | 0.00 | 0.00 | 25 | 1012.7 |
| 20260507213510 | 75 | 126 | 2.6 | 5.2 | 0.00 | 0.00 | 0.00 | 26 | 1013.0 |
| 20260507213007 | 74 | 285 | 0.9 | 3.5 | 0.00 | 0.00 | 0.00 | 30 | 1012.9 |
| 20260507212502 | 74 | 218 | 1.7 | 2.6 | 0.00 | 0.00 | 0.00 | 24 | 1013.1 |
| 20260507211959 | 73 | 55 | 2.6 | 3.5 | 0.00 | 0.00 | 0.00 | 28 | 1013.0 |
| 20260507211456 | 73 | 75 | 3.5 | 13.0 | 0.00 | 0.00 | 0.00 | 28 | 1013.1 |
| 20260507210953 | 74 | 99 | 1.7 | 3.5 | 0.00 | 0.00 | 0.00 | 25 | 1013.3 |
| 20260507210450 | 73 | 188 | 0.0 | 5.2 | 0.00 | 0.00 | 0.00 | 25 | 1013.4 |
| 20260507205947 | 73 | 199 | 1.7 | 2.6 | 0.00 | 0.00 | 0.00 | 24 | 1013.5 |
| 20260507205443 | 75 | 109 | 3.5 | 3.5 | 0.00 | 0.00 | 0.00 | 25 | 1013.5 |
| 20260507204939 | 74 | 74 | 0.9 | 1.7 | 0.00 | 0.00 | 0.00 | 27 | 1013.5 |
| 20260507204436 | 73 | 82 | 0.9 | 6.1 | 0.00 | 0.00 | 0.00 | 25 | 1013.8 |
| 20260507203934 | 74 | 346 | 1.7 | 6.1 | 0.00 | 0.00 | 0.00 | 23 | 1013.7 |
| 20260507203432 | 73 | 152 | 1.7 | 7.8 | 0.00 | 0.00 | 0.00 | 21 | 1013.7 |
| 20260507202928 | 72 | 233 | 3.5 | 8.7 | 0.00 | 0.00 | 0.00 | 24 | 1014.1 |
| 20260507202424 | 73 | 230 | 1.7 | 2.6 | 0.00 | 0.00 | 0.00 | 22 | 1014.2 |
| 20260507201920 | 72 | 120 | 0.9 | 5.2 | 0.00 | 0.00 | 0.00 | 24 | 1014.4 |
| 20260507201415 | 74 | 246 | 6.1 | 8.7 | 0.00 | 0.00 | 0.00 | 22 | 1014.4 |
| 20260507200912 | 73 | 97 | 4.3 | 8.7 | 0.00 | 0.00 | 0.00 | 23 | 1014.4 |
| 20260507200408 | 72 | 17 | 0.9 | 2.6 | 0.00 | 0.00 | 0.00 | 25 | 1014.7 |
| 20260507195904 | 72 | 247 | 5.2 | 6.1 | 0.00 | 0.00 | 0.00 | 24 | 1014.5 |
| 20260507195402 | 72 | 238 | 5.2 | 7.0 | 0.00 | 0.00 | 0.00 | 23 | 1014.4 |
| 20260507194859 | 71 | 221 | 0.9 | 5.2 | 0.00 | 0.00 | 0.00 | 25 | 1014.7 |
| 20260507194355 | 71 | 267 | 5.2 | 7.8 | 0.00 | 0.00 | 0.00 | 25 | 1014.7 |
| 20260507193851 | 72 | 252 | 4.3 | 7.0 | 0.00 | 0.00 | 0.00 | 28 | 1014.8 |
| 20260507193349 | 71 | 131 | 1.7 | 2.6 | 0.00 | 0.00 | 0.00 | 25 | 1015.0 |
| 20260507192845 | 71 | 200 | 0.9 | 6.1 | 0.00 | 0.00 | 0.00 | 22 | 1015.1 |
| 20260507192341 | 70 | 254 | 0.0 | 3.5 | 0.00 | 0.00 | 0.00 | 26 | 1015.0 |
| 20260507191838 | 70 | 267 | 5.2 | 7.8 | 0.00 | 0.00 | 0.00 | 25 | 1014.9 |
| 20260507191334 | 72 | 319 | 1.7 | 5.2 | 0.00 | 0.00 | 0.00 | 27 | 1014.9 |
| 20260507190831 | 71 | 140 | 1.7 | 1.7 | 0.00 | 0.00 | 0.00 | 25 | 1014.9 |
| 20260507190329 | 71 | 179 | 0.9 | 2.6 | 0.00 | 0.00 | 0.00 | 27 | 1015.0 |
| 20260507185828 | 71 | 178 | 2.6 | 3.5 | 0.00 | 0.00 | 0.00 | 26 | 1015.2 |
| 20260507185325 | 70 | 168 | 0.0 | 2.6 | 0.00 | 0.00 | 0.00 | 26 | 1015.2 |
| 20260507184822 | 71 | 268 | 1.7 | 7.0 | 0.00 | 0.00 | 0.00 | 26 | 1015.4 |
| 20260507184320 | 70 | 225 | 5.2 | 7.8 | 0.00 | 0.00 | 0.00 | 25 | 1015.5 |
| 20260507183816 | 70 | 282 | 4.3 | 7.8 | 0.00 | 0.00 | 0.00 | 27 | 1015.7 |
| 20260507183313 | 69 | 232 | 5.2 | 6.1 | 0.00 | 0.00 | 0.00 | 27 | 1015.7 |
| 20260507182811 | 68 | 307 | 1.7 | 7.8 | 0.00 | 0.00 | 0.00 | 29 | 1015.8 |
| 20260507182307 | 68 | 229 | 3.5 | 8.7 | 0.00 | 0.00 | 0.00 | 28 | 1015.9 |
| 20260507181803 | 68 | 257 | 3.5 | 7.0 | 0.00 | 0.00 | 0.00 | 30 | 1015.9 |
| 20260507181259 | 68 | 250 | 5.2 | 7.0 | 0.00 | 0.00 | 0.00 | 29 | 1016.1 |
| 20260507180755 | 67 | 216 | 3.5 | 7.8 | 0.00 | 0.00 | 0.00 | 29 | 1016.1 |
| 20260507180253 | 67 | 194 | 7.8 | 9.6 | 0.00 | 0.00 | 0.00 | 29 | 1016.1 |
| 20260507175748 | 66 | 270 | 2.6 | 12.2 | 0.00 | 0.00 | 0.00 | 32 | 1016.4 |
| 20260507175245 | 66 | 283 | 7.8 | 9.6 | 0.00 | 0.00 | 0.00 | 33 | 1016.2 |
| 20260507174742 | 66 | 272 | 6.1 | 9.6 | 0.00 | 0.00 | 0.00 | 30 | 1016.1 |
| 20260507174240 | 66 | 229 | 5.2 | 9.6 | 0.00 | 0.00 | 0.00 | 31 | 1016.4 |
| 20260507173738 | 65 | 248 | 4.3 | 12.2 | 0.00 | 0.00 | 0.00 | 36 | 1016.3 |
| 20260507173235 | 65 | 278 | 9.6 | 13.9 | 0.00 | 0.00 | 0.00 | 34 | 1016.8 |
| 20260507172731 | 65 | 275 | 6.1 | 11.3 | 0.00 | 0.00 | 0.00 | 35 | 1016.5 |
| 20260507172228 | 65 | 214 | 7.0 | 13.9 | 0.00 | 0.00 | 0.00 | 35 | 1016.9 |
| 20260507171728 | 65 | 233 | 11.3 | 13.9 | 0.00 | 0.00 | 0.00 | 35 | 1016.9 |
| 20260507171226 | 65 | 261 | 9.6 | 14.8 | 0.00 | 0.00 | 0.00 | 38 | 1016.8 |
| 20260507170723 | 64 | 297 | 11.3 | 16.5 | 0.00 | 0.00 | 0.00 | 36 | 1017.0 |
| 20260507170220 | 64 | 282 | 17.4 | 18.2 | 0.00 | 0.00 | 0.00 | 34 | 1017.0 |
| 20260507165715 | 64 | 275 | 15.6 | 19.1 | 0.00 | 0.00 | 0.00 | 35 | 1016.9 |
| 20260507165212 | 63 | 271 | 13.0 | 20.9 | 0.00 | 0.00 | 0.00 | 37 | 1016.8 |
| 20260507164708 | 63 | 244 | 15.6 | 19.1 | 0.00 | 0.00 | 0.00 | 36 | 1017.0 |
| 20260507164205 | 62 | 234 | 10.4 | 19.1 | 0.00 | 0.00 | 0.00 | 40 | 1017.0 |
| 20260507163702 | 63 | 272 | 12.2 | 13.9 | 0.00 | 0.00 | 0.00 | 39 | 1017.1 |
| 20260507163200 | 63 | 272 | 10.4 | 14.8 | 0.00 | 0.00 | 0.00 | 41 | 1017.0 |
| 20260507162655 | 63 | 310 | 7.0 | 13.0 | 0.00 | 0.00 | 0.00 | 39 | 1017.1 |
| 20260507162152 | 62 | 212 | 10.4 | 14.8 | 0.00 | 0.00 | 0.00 | 39 | 1017.0 |
| 20260507161648 | 61 | 254 | 13.0 | 15.6 | 0.00 | 0.00 | 0.00 | 39 | 1017.1 |
| 20260507161145 | 61 | 271 | 10.4 | 19.1 | 0.00 | 0.00 | 0.00 | 40 | 1017.1 |
| 20260507160641 | 61 | 263 | 12.2 | 18.2 | 0.00 | 0.00 | 0.00 | 38 | 1017.0 |
| 20260507160138 | 60 | 235 | 10.4 | 14.8 | 0.00 | 0.00 | 0.00 | 43 | 1017.3 |
| 20260507155633 | 60 | 285 | 14.8 | 16.5 | 0.00 | 0.00 | 0.00 | 40 | 1017.2 |
| 20260507155130 | 60 | 261 | 11.3 | 14.8 | 0.00 | 0.00 | 0.00 | 43 | 1017.2 |
| 20260507154627 | 60 | 291 | 13.0 | 20.9 | 0.00 | 0.00 | 0.00 | 43 | 1017.0 |
| 20260507154124 | 59 | 256 | 13.9 | 19.1 | 0.00 | 0.00 | 0.00 | 44 | 1016.9 |
| 20260507153620 | 58 | 272 | 11.3 | 15.6 | 0.00 | 0.00 | 0.00 | 45 | 1017.1 |
| 20260507153117 | 58 | 308 | 13.9 | 16.5 | 0.00 | 0.00 | 0.00 | 44 | 1017.0 |
| 20260507152614 | 57 | 255 | 11.3 | 13.9 | 0.00 | 0.00 | 0.00 | 46 | 1017.0 |
| 20260507152110 | 56 | 282 | 14.8 | 19.1 | 0.00 | 0.00 | 0.00 | 46 | 1017.0 |
| 20260507151606 | 55 | 281 | 12.2 | 20.0 | 0.00 | 0.00 | 0.00 | 48 | 1017.2 |
| 20260507151103 | 54 | 285 | 14.8 | 19.1 | 0.00 | 0.00 | 0.00 | 46 | 1017.2 |
| 20260507150600 | 54 | 283 | 11.3 | 18.2 | 0.00 | 0.00 | 0.00 | 48 | 1017.1 |
| 20260507150057 | 53 | 272 | 8.7 | 18.2 | 0.00 | 0.00 | 0.00 | 48 | 1017.5 |
| 20260507145551 | 52 | 264 | 17.4 | 21.7 | 0.00 | 0.00 | 0.00 | 46 | 1017.5 |
| 20260507145050 | 52 | 224 | 13.0 | 20.0 | 0.00 | 0.00 | 0.00 | 47 | 1017.2 |
| 20260507144546 | 52 | 294 | 10.4 | 16.5 | 0.00 | 0.00 | 0.00 | 49 | 1017.3 |
| 20260507144044 | 51 | 281 | 14.8 | 20.9 | 0.00 | 0.00 | 0.00 | 48 | 1017.5 |
| 20260507143540 | 51 | 303 | 12.2 | 19.1 | 0.00 | 0.00 | 0.00 | 49 | 1017.6 |
| 20260507143038 | 50 | 261 | 12.2 | 25.2 | 0.00 | 0.00 | 0.00 | 48 | 1017.5 |
| 20260507142533 | 50 | 227 | 14.8 | 21.7 | 0.00 | 0.00 | 0.00 | 49 | 1017.6 |
| 20260507142030 | 50 | 280 | 13.0 | 18.2 | 0.00 | 0.00 | 0.00 | 49 | 1017.3 |
| 20260507141526 | 49 | 282 | 10.4 | 18.2 | 0.00 | 0.00 | 0.00 | 51 | 1017.7 |
| 20260507141023 | 49 | 248 | 13.9 | 20.0 | 0.00 | 0.00 | 0.00 | 50 | 1017.6 |
| 20260507140520 | 48 | 233 | 10.4 | 15.6 | 0.00 | 0.00 | 0.00 | 50 | 1017.7 |
| 20260507140018 | 48 | 271 | 14.8 | 22.6 | 0.00 | 0.00 | 0.00 | 50 | 1017.7 |
| 20260507135514 | 48 | 291 | 13.0 | 19.1 | 0.00 | 0.00 | 0.00 | 49 | 1017.7 |
| 20260507135011 | 48 | 283 | 14.8 | 20.0 | 0.00 | 0.00 | 0.00 | 49 | 1017.5 |
| 20260507134508 | 47 | 265 | 16.5 | 20.0 | 0.00 | 0.00 | 0.00 | 49 | 1017.8 |
| 20260507134004 | 47 | 273 | 16.5 | 21.7 | 0.00 | 0.00 | 0.00 | 49 | 1017.7 |
| 20260507133500 | 47 | 277 | 13.0 | 18.2 | 0.00 | 0.00 | 0.00 | 50 | 1017.7 |
| 20260507132958 | 46 | 235 | 19.1 | 20.0 | 0.00 | 0.00 | 0.00 | 52 | 1017.6 |
| 20260507132454 | 46 | 235 | 19.1 | 20.0 | 0.00 | 0.00 | 0.00 | 52 | 1017.5 |
| 20260507131951 | 45 | 284 | 20.0 | 21.7 | 0.00 | 0.00 | 0.00 | 53 | 1017.6 |
| 20260507131448 | 45 | 265 | 13.0 | 16.5 | 0.00 | 0.00 | 0.00 | 55 | 1017.6 |
| 20260507130945 | 45 | 256 | 13.0 | 20.9 | 0.00 | 0.00 | 0.00 | 54 | 1017.6 |
| 20260507130442 | 44 | 286 | 19.1 | 23.5 | 0.00 | 0.00 | 0.00 | 53 | 1017.5 |
| 20260507125941 | 44 | 263 | 14.8 | 21.7 | 0.00 | 0.26 | 0.26 | 53 | 1017.5 |
| 20260507125438 | 44 | 279 | 17.4 | 22.6 | 0.00 | 0.26 | 0.26 | 53 | 1017.3 |
| 20260507124935 | 44 | 283 | 18.2 | 22.6 | 0.00 | 0.26 | 0.26 | 53 | 1017.3 |
| 20260507124431 | 43 | 262 | 13.0 | 20.0 | 0.00 | 0.26 | 0.26 | 54 | 1017.3 |
| 20260507123930 | 43 | 304 | 15.6 | 20.0 | 0.00 | 0.26 | 0.26 | 54 | 1017.5 |
| 20260507123427 | 43 | 271 | 13.9 | 21.7 | 0.00 | 0.26 | 0.26 | 54 | 1017.2 |
| 20260507122923 | 43 | 313 | 16.5 | 21.7 | 0.00 | 0.26 | 0.26 | 53 | 1017.3 |
| 20260507122418 | 43 | 282 | 17.4 | 20.9 | 0.00 | 0.26 | 0.26 | 54 | 1017.2 |
| 20260507121915 | 43 | 268 | 16.5 | 20.0 | 0.00 | 0.26 | 0.26 | 55 | 1017.1 |
| 20260507121410 | 43 | 244 | 13.0 | 21.7 | 0.00 | 0.26 | 0.26 | 55 | 1017.2 |
| 20260507120907 | 43 | 263 | 17.4 | 21.7 | 0.00 | 0.26 | 0.26 | 55 | 1017.3 |
| 20260507120404 | 43 | 272 | 16.5 | 22.6 | 0.00 | 0.26 | 0.26 | 55 | 1017.1 |
| 20260507115900 | 42 | 293 | 17.4 | 22.6 | 0.00 | 0.26 | 0.26 | 56 | 1017.1 |
| 20260507115356 | 42 | 274 | 16.5 | 22.6 | 0.00 | 0.26 | 0.26 | 57 | 1017.2 |
| 20260507114852 | 42 | 272 | 16.5 | 20.9 | 0.00 | 0.26 | 0.26 | 57 | 1017.2 |
| 20260507114349 | 42 | 286 | 14.8 | 20.0 | 0.00 | 0.26 | 0.26 | 58 | 1017.2 |
| 20260507113846 | 42 | 269 | 13.9 | 19.1 | 0.00 | 0.26 | 0.26 | 60 | 1017.2 |
| 20260507113343 | 41 | 273 | 16.5 | 20.9 | 0.00 | 0.26 | 0.26 | 61 | 1017.6 |
| 20260507112841 | 41 | 284 | 13.0 | 19.1 | 0.00 | 0.26 | 0.26 | 62 | 1017.3 |
| 20260507112337 | 41 | 263 | 18.2 | 22.6 | 0.00 | 0.26 | 0.26 | 61 | 1017.3 |
| 20260507111836 | 42 | 278 | 13.9 | 19.1 | 0.00 | 0.26 | 0.26 | 61 | 1017.5 |
| 20260507111332 | 42 | 269 | 14.8 | 20.9 | 0.00 | 0.26 | 0.26 | 61 | 1017.5 |
| 20260507110828 | 42 | 238 | 14.8 | 21.7 | 0.00 | 0.26 | 0.26 | 61 | 1017.5 |
| 20260507110324 | 40 | 276 | 12.2 | 15.6 | 0.00 | 0.26 | 0.26 | 64 | 1017.8 |
| 20260507105821 | 40 | 253 | 8.7 | 13.0 | 0.00 | 0.26 | 0.26 | 66 | 1017.6 |
| 20260507105318 | 41 | 261 | 7.0 | 14.8 | 0.00 | 0.26 | 0.26 | 64 | 1017.7 |
| 20260507104815 | 40 | 230 | 10.4 | 12.2 | 0.00 | 0.26 | 0.26 | 65 | 1017.7 |
| 20260507104311 | 40 | 282 | 5.2 | 9.6 | 0.00 | 0.26 | 0.26 | 65 | 1017.8 |
| 20260507103807 | 40 | 152 | 0.0 | 1.7 | 0.00 | 0.26 | 0.26 | 67 | 1018.2 |
| 20260507103304 | 41 | 259 | 5.2 | 7.8 | 0.00 | 0.26 | 0.26 | 62 | 1017.9 |
| 20260507102800 | 41 | 237 | 8.7 | 15.6 | 0.00 | 0.26 | 0.26 | 63 | 1017.8 |
| 20260507102257 | 37 | 284 | 7.8 | 8.7 | 0.00 | 0.26 | 0.26 | 70 | 1017.8 |
| 20260507101753 | 35 | 285 | 0.9 | 3.5 | 0.00 | 0.26 | 0.26 | 80 | 1018.0 |
| 20260507101248 | 32 | 285 | 0.0 | 0.9 | 0.00 | 0.26 | 0.26 | 86 | 1018.0 |
| 20260507100746 | 34 | 285 | 2.6 | 5.2 | 0.00 | 0.26 | 0.26 | 86 | 1018.4 |
| 20260507100244 | 32 | 285 | 2.6 | 2.6 | 0.00 | 0.26 | 0.26 | 91 | 1018.4 |
| 20260507095742 | 32 | 285 | 0.0 | 0.0 | 0.00 | 0.26 | 0.26 | 91 | 1018.4 |
| 20260507095238 | 32 | 285 | 0.0 | 1.7 | 0.00 | 0.26 | 0.26 | 91 | 1018.4 |
| 20260507094735 | 32 | 285 | 0.9 | 1.7 | 0.00 | 0.26 | 0.26 | 90 | 1018.5 |
| 20260507094232 | 32 | 285 | 0.0 | 1.7 | 0.00 | 0.26 | 0.26 | 89 | 1018.6 |
| 20260507093729 | 32 | 285 | 0.0 | 0.0 | 0.00 | 0.26 | 0.26 | 90 | 1018.6 |
| 20260507093227 | 32 | 285 | 0.0 | 0.9 | 0.00 | 0.26 | 0.26 | 90 | 1018.6 |
| 20260507092725 | 33 | 285 | 0.0 | 0.0 | 0.00 | 0.26 | 0.26 | 89 | 1019.0 |
| 20260507092220 | 33 | 285 | 0.0 | 0.0 | 0.00 | 0.26 | 0.26 | 89 | 1018.9 |
| 20260507091717 | 33 | 285 | 0.0 | 1.7 | 0.00 | 0.26 | 0.26 | 89 | 1019.1 |
| 20260507091214 | 33 | 285 | 0.0 | 1.7 | 0.00 | 0.26 | 0.26 | 89 | 1019.1 |
| 20260507090709 | 35 | 285 | 1.7 | 1.7 | 0.00 | 0.26 | 0.26 | 87 | 1018.9 |
| 20260507090206 | 36 | 285 | 1.7 | 1.7 | 0.00 | 0.26 | 0.26 | 87 | 1018.9 |
| 20260507085703 | 35 | 285 | 2.6 | 2.6 | 0.00 | 0.26 | 0.26 | 90 | 1018.9 |
| 20260507085200 | 35 | 285 | 0.0 | 0.0 | 0.00 | 0.26 | 0.26 | 91 | 1019.0 |
| 20260507084657 | 34 | 285 | 0.0 | 0.9 | 0.00 | 0.26 | 0.26 | 91 | 1018.9 |
| 20260507084153 | 34 | 285 | 1.7 | 2.6 | 0.00 | 0.26 | 0.26 | 91 | 1019.2 |
| 20260507083650 | 34 | 285 | 0.0 | 1.7 | 0.00 | 0.26 | 0.26 | 92 | 1019.0 |
| 20260507083147 | 34 | 285 | 0.0 | 0.0 | 0.00 | 0.26 | 0.26 | 92 | 1019.0 |
| 20260507082643 | 33 | 285 | 0.0 | 1.7 | 0.00 | 0.26 | 0.26 | 92 | 1019.0 |
| 20260507082139 | 33 | 285 | 0.0 | 0.0 | 0.00 | 0.26 | 0.26 | 91 | 1019.1 |
| 20260507081636 | 33 | 285 | 0.0 | 0.0 | 0.00 | 0.26 | 0.26 | 91 | 1019.2 |
| 20260507081132 | 33 | 285 | 0.0 | 0.0 | 0.00 | 0.26 | 0.26 | 91 | 1019.2 |
| 20260507080629 | 33 | 285 | 0.0 | 0.0 | 0.00 | 0.26 | 0.26 | 91 | 1019.3 |
| 20260507080126 | 33 | 285 | 0.0 | 0.0 | 0.00 | 0.26 | 0.26 | 90 | 1019.4 |
| 20260507075625 | 33 | 285 | 0.0 | 0.0 | 0.00 | 0.26 | 0.26 | 90 | 1019.6 |
| 20260507075122 | 34 | 285 | 0.0 | 0.9 | 0.00 | 0.26 | 0.26 | 90 | 1019.4 |
| 20260507074619 | 34 | 285 | 0.9 | 0.9 | 0.00 | 0.26 | 0.26 | 91 | 1019.4 |
| 20260507074118 | 33 | 285 | 1.7 | 1.7 | 0.00 | 0.26 | 0.26 | 91 | 1019.4 |
| 20260507073613 | 33 | 276 | 0.0 | 2.6 | 0.00 | 0.26 | 0.26 | 91 | 1019.3 |
| 20260507073109 | 33 | 288 | 0.0 | 0.9 | 0.00 | 0.26 | 0.26 | 91 | 1019.4 |
| 20260507072607 | 34 | 299 | 0.0 | 1.7 | 0.00 | 0.26 | 0.26 | 91 | 1019.7 |
| 20260507072104 | 33 | 245 | 0.9 | 1.7 | 0.00 | 0.26 | 0.26 | 91 | 1019.7 |
| 20260507071602 | 33 | 265 | 0.9 | 0.9 | 0.00 | 0.26 | 0.26 | 91 | 1019.6 |
| 20260507071058 | 33 | 275 | 0.0 | 0.0 | 0.00 | 0.26 | 0.26 | 91 | 1019.6 |